Meteo pe oră la Chester

Astăzi, 30 Septembrie, Miercuri

Timp Temperatura Precipitaţii Vânt Presiune Umiditate
00:00 +10°C° 0 mm 3 m/s 757 mmHg 85%
01:00 +10°C° 0 mm 4 m/s 756 mmHg 84%
02:00 +10°C° 0 mm 4 m/s 755 mmHg 82%
03:00 +10°C° 0 mm 5 m/s 755 mmHg 81%
04:00 +10°C° 0 mm 5 m/s 754 mmHg 81%
05:00 +10°C° 0 mm 6 m/s 753 mmHg 82%
06:00 +10°C° 0 mm 6 m/s 753 mmHg 82%
07:00 +10°C° 0.3 mm 6 m/s 752 mmHg 84%
08:00 +10°C° 0.3 mm 7 m/s 752 mmHg 85%
09:00 +10°C° 0.3 mm 7 m/s 751 mmHg 87%
10:00 +11°C° 0.4 mm 7 m/s 751 mmHg 87%
11:00 +11°C° 0.4 mm 7 m/s 750 mmHg 87%
12:00 +11°C° 0.4 mm 7 m/s 749 mmHg 87%
13:00 +11°C° 0.4 mm 7 m/s 748 mmHg 88%
14:00 +12°C° 0.4 mm 7 m/s 748 mmHg 89%
15:00 +13°C° 0.4 mm 6 m/s 747 mmHg 90%
16:00 +13°C° 0.1 mm 5 m/s 747 mmHg 90%
17:00 +12°C° 0.1 mm 4 m/s 747 mmHg 91%
18:00 +12°C° 0.1 mm 3 m/s 746 mmHg 91%
19:00 +12°C° 0.1 mm 4 m/s 747 mmHg 91%
20:00 +11°C° 0.1 mm 4 m/s 747 mmHg 92%
21:00 +11°C° 0.1 mm 4 m/s 747 mmHg 93%
22:00 +10°C° 0.1 mm 4 m/s 747 mmHg 93%
23:00 +10°C° 0.1 mm 4 m/s 747 mmHg 93%

Mâine, 1 Octombrie, Joi

Timp Temperatura Precipitaţii Vânt Presiune Umiditate
00:00 +8°C° 0.1 mm 4 m/s 747 mmHg 93%
01:00 +8°C° 0.2 mm 4 m/s 747 mmHg 91%
02:00 +8°C° 0.2 mm 4 m/s 748 mmHg 90%
03:00 +8°C° 0.2 mm 4 m/s 748 mmHg 89%
04:00 +8°C° 0 mm 3 m/s 748 mmHg 88%
05:00 +7°C° 0 mm 3 m/s 748 mmHg 88%
06:00 +7°C° 0 mm 3 m/s 748 mmHg 87%
07:00 +8°C° 0 mm 3 m/s 748 mmHg 84%
08:00 +9°C° 0 mm 3 m/s 748 mmHg 81%
09:00 +10°C° 0 mm 3 m/s 747 mmHg 78%
10:00 +11°C° 0.1 mm 3 m/s 747 mmHg 72%
11:00 +12°C° 0.1 mm 3 m/s 747 mmHg 66%
12:00 +13°C° 0.1 mm 3 m/s 747 mmHg 60%
13:00 +13°C° 0.3 mm 2 m/s 746 mmHg 61%
14:00 +13°C° 0.3 mm 2 m/s 746 mmHg 62%
15:00 +13°C° 0.3 mm 1 m/s 745 mmHg 64%
16:00 +12°C° 0.2 mm 2 m/s 745 mmHg 69%
17:00 +10°C° 0.2 mm 2 m/s 745 mmHg 73%
18:00 +9°C° 0.2 mm 2 m/s 745 mmHg 78%
19:00 +8°C° 0 mm 2 m/s 745 mmHg 81%
20:00 +8°C° 0 mm 2 m/s 745 mmHg 83%
21:00 +7°C° 0 mm 2 m/s 745 mmHg 85%
22:00 +7°C° 0 mm 2 m/s 745 mmHg 86%
23:00 +7°C° 0 mm 2 m/s 744 mmHg 86%

Poimâine, 2 Octombrie, Vineri

Timp Temperatura Precipitaţii Vânt Presiune Umiditate
00:00 +7°C° 0 mm 2 m/s 744 mmHg 87%
01:00 +7°C° 0 mm 2 m/s 744 mmHg 87%
02:00 +7°C° 0 mm 2 m/s 744 mmHg 87%
03:00 +8°C° 0 mm 2 m/s 744 mmHg 88%
04:00 +8°C° 0.3 mm 3 m/s 744 mmHg 88%
05:00 +8°C° 0.3 mm 3 m/s 745 mmHg 88%
06:00 +8°C° 0.3 mm 3 m/s 745 mmHg 88%
07:00 +9°C° 0.2 mm 3 m/s 745 mmHg 87%
08:00 +8°C° 0.2 mm 4 m/s 745 mmHg 85%
09:00 +10°C° 0.2 mm 4 m/s 745 mmHg 84%
10:00 +10°C° 0.1 mm 5 m/s 746 mmHg 79%
11:00 +13°C° 0.1 mm 5 m/s 746 mmHg 73%
12:00 +14°C° 0.1 mm 6 m/s 746 mmHg 68%
13:00 +14°C° 0.2 mm 6 m/s 746 mmHg 70%
14:00 +14°C° 0.2 mm 5 m/s 746 mmHg 71%
15:00 +14°C° 0.2 mm 5 m/s 746 mmHg 73%
16:00 +13°C° 0.3 mm 5 m/s 746 mmHg 77%
17:00 +11°C° 0.3 mm 6 m/s 746 mmHg 82%
18:00 +11°C° 0.3 mm 6 m/s 746 mmHg 86%
19:00 +11°C° 0.2 mm 6 m/s 746 mmHg 87%
20:00 +12°C° 0.2 mm 5 m/s 746 mmHg 87%
21:00 +12°C° 0.2 mm 5 m/s 747 mmHg 88%
22:00 +12°C° 0 mm 5 m/s 746 mmHg 88%
23:00 +12°C° 0 mm 5 m/s 746 mmHg 87%

3 Octombrie, Sâmbătă

Timp Temperatura Precipitaţii Vânt Presiune Umiditate
00:00 +12°C° 0 mm 4 m/s 746 mmHg 87%
01:00 +12°C° 0.1 mm 5 m/s 745 mmHg 88%
02:00 +12°C° 0.1 mm 5 m/s 745 mmHg 89%
03:00 +12°C° 0.1 mm 5 m/s 744 mmHg 90%
04:00 +12°C° 0 mm 5 m/s 744 mmHg 90%
05:00 +12°C° 0 mm 5 m/s 744 mmHg 91%
06:00 +12°C° 0 mm 5 m/s 743 mmHg 92%
07:00 +13°C° 0.4 mm 4 m/s 743 mmHg 92%
08:00 +13°C° 0.4 mm 4 m/s 742 mmHg 93%
09:00 +13°C° 0.4 mm 3 m/s 742 mmHg 93%
10:00 +14°C° 0.1 mm 3 m/s 741 mmHg 90%
11:00 +16°C° 0.1 mm 3 m/s 741 mmHg 87%
12:00 +15°C° 0.1 mm 4 m/s 740 mmHg 85%
13:00 +16°C° 2.3 mm 3 m/s 739 mmHg 88%
14:00 +14°C° 2.3 mm 3 m/s 739 mmHg 91%
15:00 +13°C° 2.3 mm 3 m/s 738 mmHg 95%
16:00 +13°C° 1 mm 4 m/s 737 mmHg 93%
17:00 +12°C° 1 mm 5 m/s 737 mmHg 92%
18:00 +10°C° 1 mm 6 m/s 737 mmHg 90%
19:00 +9°C° 0 mm 5 m/s 737 mmHg 91%
20:00 +9°C° 0 mm 5 m/s 737 mmHg 91%
21:00 +8°C° 0 mm 4 m/s 737 mmHg 91%
22:00 +8°C° 0 mm 4 m/s 737 mmHg 92%
23:00 +8°C° 0 mm 3 m/s 737 mmHg 92%

4 Octombrie, Duminică

Timp Temperatura Precipitaţii Vânt Presiune Umiditate
00:00 +8°C° 0 mm 2 m/s 737 mmHg 92%
01:00 +8°C° 0 mm 2 m/s 737 mmHg 91%
02:00 +8°C° 0 mm 2 m/s 737 mmHg 90%
03:00 +8°C° 0 mm 2 m/s 737 mmHg 89%
04:00 +8°C° 0 mm 2 m/s 737 mmHg 89%
05:00 +8°C° 0 mm 2 m/s 738 mmHg 90%
06:00 +8°C° 0 mm 2 m/s 738 mmHg 90%
07:00 +9°C° 0 mm 2 m/s 738 mmHg 88%
08:00 +10°C° 0 mm 2 m/s 738 mmHg 86%
09:00 +12°C° 0 mm 2 m/s 737 mmHg 85%
10:00 +13°C° 0 mm 2 m/s 737 mmHg 82%
11:00 +12°C° 0 mm 3 m/s 737 mmHg 79%
12:00 +13°C° 0 mm 3 m/s 737 mmHg 77%
13:00 +13°C° 0.2 mm 3 m/s 736 mmHg 78%
14:00 +13°C° 0.2 mm 4 m/s 735 mmHg 80%
15:00 +12°C° 0.2 mm 4 m/s 735 mmHg 82%
16:00 +12°C° 1 mm 4 m/s 734 mmHg 85%
17:00 +11°C° 1 mm 4 m/s 734 mmHg 88%
18:00 +10°C° 1 mm 4 m/s 733 mmHg 91%
19:00 +9°C° 2.4 mm 5 m/s 733 mmHg 91%
20:00 +9°C° 2.4 mm 6 m/s 733 mmHg 91%
21:00 +8°C° 2.4 mm 7 m/s 733 mmHg 91%
22:00 +8°C° 2 mm 6 m/s 734 mmHg 92%
23:00 +8°C° 2 mm 6 m/s 734 mmHg 93%

5 Octombrie, Luni

Timp Temperatura Precipitaţii Vânt Presiune Umiditate
00:00 +8°C° 2 mm 5 m/s 734 mmHg 94%
01:00 +9°C° 0.6 mm 5 m/s 735 mmHg 94%
02:00 +9°C° 0.6 mm 5 m/s 735 mmHg 94%
03:00 +10°C° 0.6 mm 4 m/s 736 mmHg 93%
04:00 +11°C° 0.6 mm 4 m/s 736 mmHg 93%
05:00 +11°C° 0.6 mm 4 m/s 737 mmHg 92%
06:00 +11°C° 0.6 mm 4 m/s 738 mmHg 91%
07:00 +11°C° 0.3 mm 4 m/s 739 mmHg 90%
08:00 +10°C° 0.3 mm 5 m/s 739 mmHg 90%
09:00 +10°C° 0.3 mm 5 m/s 740 mmHg 90%
10:00 +13°C° 0.2 mm 4 m/s 740 mmHg 85%
11:00 +14°C° 0.2 mm 4 m/s 741 mmHg 80%
12:00 +16°C° 0.2 mm 3 m/s 742 mmHg 75%
13:00 +16°C° 0.4 mm 3 m/s 742 mmHg 76%
14:00 +16°C° 0.4 mm 3 m/s 742 mmHg 77%
15:00 +14°C° 0.4 mm 4 m/s 743 mmHg 78%
16:00 +13°C° 0.2 mm 3 m/s 743 mmHg 81%
17:00 +12°C° 0.2 mm 3 m/s 744 mmHg 83%
18:00 +11°C° 0.2 mm 3 m/s 745 mmHg 85%
19:00 +11°C° 0 mm 3 m/s 745 mmHg 86%
20:00 +10°C° 0 mm 2 m/s 746 mmHg 88%
21:00 +10°C° 0 mm 2 m/s 746 mmHg 89%
22:00 +9°C° 0 mm 2 m/s 746 mmHg 90%
23:00 +9°C° 0 mm 2 m/s 747 mmHg 90%
Arată mai mult

We Need Your Consent

Meteoprog and our Service Providers may store and access personal data such as cookies, device identifiers or other similar technologies on your device and process such data to personalise content and ads, as well as provide social media features and to analyse the traffic.

  • Store and/or access information on your device

    Cookies, device identifiers or other information can be stored or accessed on your device for the purposes indicated above.

  • Personalised ads and content, ad and content measurement, audience insights, and products development

    Ads and content can be personalised based on a profile. More data can be added to better personalise ads and content. Ad and content performance can be measured. Insights about the audience who saw the ads and content can be derived. Such data can be used to develop or improve user’s experience, systems and software.

By clicking ‘I Agree’ you will allow the use of indicated cookies, device identifiers, web beacons or other similar technologies. Your settings can be changed in the browser on your device.

For certain purposes, legitimate interests may be relied on, rather than consent. You can read more about this in our Privacy and Cookie Policy.